Regional Weather Roundup
Issued by NWS

Home | Current Version | Previous Version | Text Only | Print | Product List | Glossary On
Versions: 1 2 3 4 5 6 7 8 9 10 11 12 13 14 15 16 17 18 19 20 21 22 23 24 25 26 27 28 29 30 31 32 33 34 35 36 37 38 39 40 41 42 43 44 45 46 47 48 49 50
000
ASUS44 KLUB 271510
RWRTX
WEST TEXAS WEATHER ROUNDUP
NATIONAL WEATHER SERVICE LUBBOCK TX
1000 AM CDT SAT MAY 27 2017

NOTE: "FAIR" INDICATES FEW OR NO CLOUDS BELOW 12,000 FEET WITH NO
SIGNIFICANT WEATHER AND/OR OBSTRUCTIONS TO VISIBILITY.

TXZ004-006>008-010-012-014-016-OKZ002-271600-
TEXAS PANHANDLE/OKLAHOMA PANHANDLE

CITY           SKY/WX    TMP DP  RH WIND       PRES   REMARKS
AMARILLO       SUNNY     71  36  27 NW15      29.93R
BORGER         CLOUDY    69  51  52 NW9       29.91R
CANADIAN       SUNNY     72  57  58 NW13G18   29.83R
DALHART        SUNNY     66  51  58 N21G30    29.97R
DUMAS          SUNNY     65  50  57 NW24G31   29.95R
GUYMON         CLOUDY    64  59  83 N20       29.89R
HEREFORD       SUNNY     81  28  14 W12G17    29.95R
PAMPA          CLOUDY    70  46  43 NW18G24   29.91R
PERRYTON       MOSUNNY   73  62  68 N13       29.85R
$$

TXZ026-029-035-045-048-271600-
SOUTHERN PANHANDLE/SOUTH PLAINS/ROLLING PLAINS

CITY           SKY/WX    TMP DP  RH WIND       PRES   REMARKS
CHILDRESS      SUNNY     82  38  20 W14       29.82R
SEMINOLE       SUNNY     81  32  17 NW6       29.98S
LUBBOCK        MOSUNNY   84  25  11 W9        29.94R
PLAINVIEW      SUNNY     82  27  13 W10       29.91S
SNYDER         SUNNY     81  68  63 S14       29.90F
$$

TXZ052-054-060>062-072-078-127-140-154-169-271600-
PERMIAN BASIN/CONCHO VALLEY/BIG COUNTRY/EDWARDS PLATEAU

CITY           SKY/WX    TMP DP  RH WIND       PRES   REMARKS
ABILENE        MOSUNNY   82  72  71 SW15      29.88F
BIG SPRING     SUNNY     82  64  55 S10G16    29.94S
BROWNWOOD      CLOUDY    82  75  78 S10G16    29.89S
JUNCTION       CLOUDY    80  75  84 S8        29.91S
MIDLAND        SUNNY     89  42  19 W12       29.94R
ODESSA         SUNNY     89  38  16 NW14      29.95R
SAN ANGELO     PTSUNNY   85  70  60 SW21G28   29.90F
SONORA         PTSUNNY   82  75  78 SW8       29.98R
SWEETWATER     SUNNY     82  70  68 S20       29.92R
WINK           SUNNY     87  30  13 W16G23    29.95R
$$

TXZ055-058-074-075-080-082-271600-
FAR WEST/SOUTHWEST MOUNTAINS/TRANS PECOS

CITY           SKY/WX    TMP DP  RH WIND       PRES   REMARKS
ALPINE         SUNNY     85  31  14 W13       30.13R
DRYDEN           N/A     80  71  74 E6        29.92R
EL PASO        MOSUNNY   80  35  19 W16       30.06R
FORT STOCKTON  SUNNY     88  36  15 NW16G26   29.98R
GUADALUPE PASS SUNNY     74  29  19 W37G45    30.10R
MARFA          SUNNY     81  36  19 W18G25    30.13R
PECOS          SUNNY     88  33  14 W18       29.96S
PRESIDIO       FAIR      85  35  16 S6        30.01R
$$

TXZ014-016-019-021>030-083-271600
TEXAS TECH WEST TEXAS MESONET/TEXAS PANHANDLE/NORTHERN SOUTH PLAINS

CITY           SKY/WX    TMP DP  RH WIND       PRES   REMARKS
ABERNATHY 5ENE   N/A     83  26  12 W10       29.94R
AMARILLO 9NNE    N/A     71  43  37 NW9       29.93R
AMARILLO 7SSE    N/A     74  34  23 NW13      29.95R
AMHERST 1NE      N/A     82  18   9 W15       29.95S
BOOTLEG 11WNW    N/A     79  23  12 NW16      30.00R
CANADIAN 6E      N/A     73  57  57 W13       29.82R
CAPROCK CYN SP   N/A     87  28  12 W13       29.86R
CHILDRESS 2NNE   N/A     83  40  21 SW9       29.81S
CLARENDON 2WSW   N/A     83  35  17 NW15      29.86R
CLAUDE 12SW      N/A     78  30  17 NW14      29.92R
DIMMITT 2NE      N/A     81  26  13 W12       29.95R
FLOYDADA 2NNE    N/A     82  27  13 W10       29.91S
FRIONA 2NE       N/A     82  19   9 W20       29.96S
GOODLETT 3W      N/A     86  39  19 SW14      29.79S
HART 3N          N/A     80  26  14 W15       29.94S
HEREFORD 2NW     N/A     81  24  12 W9        29.94S
MCLEAN 1E        N/A     80  34  19 NW18      29.84R
MEMPHIS 1NE      N/A     84  41  21 SW7       29.81R
MULESHOE 2SSW    N/A     77  26  14 W10       29.97S
OLTON 6S         N/A     82  26  12 W10       29.94S
PALO DURO SP     N/A     78  31  17 NW14      29.94R
PAMPA 2E         N/A     68  45  42 NW17      29.89R
PLAINVIEW 1S     N/A     83  26  12 W10       29.92S
SILVERTON 7ESE   N/A     85  31  14 W12       29.90R
TULIA 2ENE       N/A     85  28  12 W16       29.92R
TURKEY 2WSW      N/A     88  30  12 W6        29.84S
UMBARGER 3NNE    N/A     77  29  17 NW16      29.95R
$$

TXZ033>036-039>041-045>048-271600
TEXAS TECH WEST TEXAS MESONET/SOUTH PLAINS

CITY           SKY/WX    TMP DP  RH WIND       PRES   REMARKS
AIKEN 3WSW       N/A     85  29  13 W13       29.93S
ANDREWS 2NE      N/A     87  31  13 W15       29.96S
ANTON 6SSW       N/A     83  24  11 NW14      29.95R
BROWNFIELD 2S    N/A     83  28  13 W8        29.96S
DENVR CTY 7WNW   N/A     83  22  10 W7        29.99R
GAIL 2ESE        N/A     86  53  32 W7        29.90R
LAMESA 2SE       N/A     85  38  19 W16       29.94S
LEVELLAND 4S     N/A     83  20   9 NW9       29.97R
LUBBOCK 3WNW     N/A     84  24  11 W7        29.94S
MORTON 1ENE      N/A     81  20  10 W10       29.97S
ODONNELL 1N      N/A     83  35  18 W12       29.93F
PLAINS 3N        N/A     83  17   8 NW13      29.99R
RALLS 1SE        N/A     83  29  14 W9        29.93S
REESE CENTER     N/A     82  21  10 NW10      29.95R
SEAGRAVES 1SW    N/A     83  30  14 W7        29.97S
SEMINOLE 2NNE    N/A     81  30  16 W7        29.97S
SLATON 2NE       N/A     85  26  11 W9        29.93S
SNYDER 3E        N/A     83  69  61 S12       29.90S
SUNDOWN 8SW      N/A     84  20   9 NW10      29.97S
TAHOKA 3NNE      N/A     84  32  15 W8        29.93F
WOLFFORTH 6SSW   N/A     83  21  10 W9        29.95S
$$

TXZ031-032-036>038-042>044-271600-
TEXAS TECH WEST TEXAS MESONET/ROLLING PLAINS

CITY           SKY/WX    TMP DP  RH WIND       PRES   REMARKS
ASPERMONT 3NE    N/A     85  68  55 W10       29.85S
FLUVANNA 3WNW    N/A     82  58  43 S8        29.91S
GRAHAM 5SSW      N/A     83  42  23 W14       29.91F
GUTHRIE 10WSW    N/A     88  45  21 W13       29.83S
HASKELL 1NW      N/A     85  68  56 SW16      29.83S
JAYTON 1SSE      N/A     82  60  48 SW8       29.86S
KNOX CITY 3NW    N/A     87  65  47 SW15      29.82F
LK A HENRY 1NW   N/A     83  53  35 W10       29.88S
NORTHFIELD 1S    N/A     85  38  18 W9        29.82S
ODELL 4ENE       N/A     86  53  31 SW13      29.78S
PADUCAH 10SW     N/A     90  33  13 W17       29.82S
POST 1NE         N/A     86  40  19 W13       29.89S
RRING SPRGS 3N   N/A     85  34  15 W13       29.87S
SEYMOUR 3NW      N/A     87  68  53 SW17      29.81S
SPUR 1W          N/A     85  41  21 W8        29.86S
WEINERT 2NNE     N/A     85  70  61 SW16      29.83R
WHITE RVR 6NE    N/A     87  25  10 W14       29.89S
$$

TXZ052-054-060>062-072-078-127-140-154-169-271600-
TEXAS TECH WEST TEXAS MESONET/PERMIAN BASIN/
CONCHO VALLEY/BIG COUNTRY/EDWARDS PLATEAU

CITY           SKY/WX    TMP DP  RH WIND       PRES   REMARKS
COYANOSA 2N      N/A     90  33  13 W17G28    29.95R
JUNCTION 1SSW    N/A     80  75  84 S10       29.92S
MERTZON 3NNE     N/A     85  71  63 S15       29.92S
SAN ANGELO 7NW   N/A     84  69  60 S12       29.90F
STRLNG CT 4WSW   N/A     84  68  58 S13       29.92F
ST LAWRNCE 5SW   N/A     83  63  51 SW12      29.94S
SWEETWATR 11SW   N/A     80  70  71 S16       29.92S
WALL 1E          N/A     84  72  66 SW20      29.92S
$$

TXZ055-058-074-075-080-082-271600-
TEXAS TECH WEST TEXAS MESONET/FAR WEST/SOUTHWEST MOUNTAINS/TRANS PECOS

CITY           SKY/WX    TMP DP  RH WIND       PRES   REMARKS
PRSMN GAP BBNP   N/A     85  59  42 S5        29.97S
GUADLPE MTN NP   N/A     72  26  18 W22       30.11R
$$



USA.gov is the U.S. government's official web portal to all federal, state and local government web resources and services.